Regional Weather Roundup
Issued by NWS

Home | Current Version | Previous Version | Graphics & Text | Print | Product List | Glossary On
Versions: 1 2 3 4 5 6 7 8 9 10 11 12 13 14 15 16 17 18 19 20 21 22 23 24 25 26 27 28 29 30 31 32 33 34 35 36 37 38 39 40 41 42 43 44 45 46 47 48 49 50
000
ASUS43 KLOT 280108
RWRIL

ILLINOIS REGIONAL WEATHER ROUNDUP
NATIONAL WEATHER SERVICE CHICAGO/ROMEOVILLE IL
800 PM CDT TUE SEP 27 2016

NOTE: "FAIR" INDICATES FEW OR NO CLOUDS BELOW 12,000 FEET WITH NO
SIGNIFICANT WEATHER AND/OR OBSTRUCTIONS TO VISIBILITY.

* THESE STATIONS ARE NOT UNDER NWS QUALITY CONTROL. THEY ALSO MAY NOT
  REPORT WEATHER SUCH AS PRECIPITATION OR FOG.

ILZ001-002-007-009-015-016-024-280200-
NORTHWEST ILLINOIS

CITY           SKY/WX    TMP DP  RH WIND       PRES   REMARKS
MOLINE         MOCLDY    61  43  51 CALM      29.76F
STERLING*      MOCLDY    59  39  47 CALM      29.77S
SAVANNA*       CLOUDY    62  39  42 CALM      29.76S
$$

ILZ003-004-008-010-011-017-018-280200-
NORTH CENTRAL ILLINOIS

CITY           SKY/WX    TMP DP  RH WIND       PRES   REMARKS
ROCKFORD       CLOUDY    60  38  43 W3        29.78R
FREEPORT*      CLOUDY    57  40  53 CALM      29.78S
ROCHELLE*      CLOUDY    56  42  60 CALM      29.78R
DE KALB*       CLOUDY    59  38  45 NW6       29.78R
$$

ILZ005-006-012>014-019>023-280200-
NORTHEAST ILLINOIS

CITY           SKY/WX    TMP DP  RH WIND       PRES   REMARKS
CHICAGO-OHARE  CLOUDY    63  34  33 W7        29.76S
CHICAGO-MIDWAY MOCLDY    65  32  29 W5        29.77S
AURORA         CLOUDY    57  42  57 CALM      29.77S
LANSING*       PTCLDY    56  38  51 CALM      29.78S
JOLIET*        MOCLDY    54  45  71 CALM      29.78R
WAUKEGAN       MOCLDY    57  46  66 N5        29.77R
DUPAGE AIRPORT CLOUDY    60  36  40 SW3       29.76S
KANKAKEE*      PTCLDY    58  38  46 CALM      29.79S
WHEELING       CLOUDY    62  36  37 NE3       29.78R
MORRIS*        MOCLDY    59  38  45 CALM      29.76S
ROMEOVILLE*    PTCLDY    58  41  54 CALM      29.77S
NORTHERLY ISL    N/A     66  30  26 W9          N/A
$$

LMZ740>746-280200-
SOUTHERN LAKE MICHIGAN

STATION/POSITION SKY/WX   TEMP    WIND        PRES    VSBY  WAVE
                          AIR SEA DIR/SP/G                  HT/PER
                          (F)     (DEG/KT/KT) (MB)    (MI)  (FT/S)
SOUTHERN BUOY              58 70  350/ 14/ 19 1007.3F         3/ 5
WILMETTE HARBOR            61 59   60/ 10/ 12   N/A           1/ 2
HARRISON CRIB              67     270/ 10/ 12   N/A
BURNHAM HARBOR             66     250/  5/ 12   N/A
CALUMET HARBOR             65     270/  2/  5 1007.7S
BURNS HARBOR               67     280/ 12/ 17 1008.8R
MICHIGAN CITY              67     250/ 23/ 25   N/A
MICHIGAN CITY 6N           67 67  280/ 16/ 21   N/A           5/ 4
ST. JOSEPH                 63 67   30/ 10/ 16 1008.2          4/ 5
$$

ILZ025>027-034>036-040-047-049-050-058-095>099-280200-
WEST-CENTRAL ILLINOIS

CITY           SKY/WX    TMP DP  RH WIND       PRES   REMARKS
QUINCY         CLEAR     67  45  45 W5        29.82S
GALESBURG*       N/A    N/A N/A N/A MISG        N/A
MACOMB*        CLEAR     57  44  60 SW5       29.82S
JACKSONVILLE*  CLEAR     63  45  51 SW5       29.82S
PITTSFIELD*    CLEAR     67  50  53 SW3       29.83S
$$

ILZ028>032-037-038-041>044-048-051>054-059>061-280200-
CENTRAL ILLINOIS

CITY           SKY/WX    TMP DP  RH WIND       PRES   REMARKS
PONTIAC        PTCLDY    58  39  48 W5        29.79S
BLOOMINGTON    PTCLDY    62  42  47 W6        29.81S
DECATUR        CLEAR     67  43  41 SW5       29.82R
PEORIA         CLEAR     61  43  51 CALM      29.80S
LACON*         PTCLDY    56  42  61 CALM      29.78S
LINCOLN*       CLEAR     68  43  39 CALM      29.80S
SPRINGFIELD    CLEAR     61  45  55 W3        29.82R
TAYLORVILLE    CLEAR     64  47  53 W5        29.82S
$$

ILZ033-039-045-046-055>057-062-063-280200-
EAST-CENTRAL ILLINOIS

CITY           SKY/WX    TMP DP  RH WIND       PRES   REMARKS
CHAMPAIGN      CLEAR     60  41  49 SW6       29.81S
RANTOUL*       PTCLDY    62  42  47 W5        29.80S
MATTOON        PTCLDY    66  47  50 SW6       29.82S
PARIS*         CLEAR     58  46  63 CALM      29.83S
$$

ILZ079-100>102-280200-
SOUTHWEST ILLINOIS

CITY           SKY/WX    TMP DP  RH WIND       PRES   REMARKS
BELLEVILLE     CLEAR     67  52  57 SW5       29.84S
CAHOKIA*       CLEAR     71  50  47 SW5       29.84F
SPARTA*        CLEAR     68  53  59 SW7       29.88S
$$

ILZ064>066-069>071-074>076-080>082-084>086-088>090-092>094-280200-
SOUTH-CENTRAL ILLINOIS

CITY           SKY/WX    TMP DP  RH WIND       PRES   REMARKS
CARBONDALE     CLEAR     60  56  86 SW7       29.87F
CAIRO*         CLEAR     67  53  61 SW3       29.90S
EFFINGHAM*     PTCLDY    65  53  65 S3        29.85S
MARION         CLEAR     63  55  77 S6        29.89S
MT. VERNON     CLEAR     61  48  63 CALM      29.87S
CENTRALIA*     CLEAR     64  54  72 SW3       29.85R
SALEM*         CLEAR     65  52  62 S6        29.85S
METROPOLIS*    CLEAR     65  54  67 CALM      29.91S
$$

ILZ067-068-072-073-078-083-087-091-280200-
SOUTHEAST ILLINOIS

CITY           SKY/WX    TMP DP  RH WIND       PRES   REMARKS
LAWRENCEVILLE  CLEAR     62  49  62 S8        29.85S
FLORA*         CLEAR     62  53  71 SW6       29.86R
FAIRFIELD*     CLEAR     61  54  76 CALM      29.85S
HARRISBURG*    CLEAR     65  55  71 SW3       29.88S
ROBINSON*      CLEAR     56  50  81 SW6       29.85S
CARMI*         CLEAR     64  53  68 SW6       29.86F
$$

ABBREVIATIONS USED IN REMARKS
   TC - TEMPERATURE IN CELSIUS
  WCI - WIND CHILL INDEX
   HX - HEAT INDEX
  VSB - VISIBILITY
$$




USA.gov is the U.S. government's official web portal to all federal, state and local government web resources and services.